User: anonymous   Login
Location: Unspecified
(0.0000°N, 0.0000°E)
Time: 02:45:48
(UTC+00:00)
Language:

Explorer 29 - Orbit

View from above orbital plane
View from above orbital plane
View from above satellite
View from above satellite

Ground track
Ground track

The orbit data is extracted from the following two-line orbital elements,

1 01726U 65089A   24107.95241878 -.00000033  00000-0  26159-3 0  9995
2 01726  59.3830   7.7207 0720540  63.8624  15.1141 11.97065462554936
Epoch (UTC): 16 April 2024 22:51:28
Eccentricity: 0.0720540
inclination: 59.3830°
perigee height: 1112 km
apogee height: 2275 km
right ascension of ascending node: 7.7207°
argument of perigee: 63.8624°
revolutions per day: 11.97065462
mean anomaly at epoch: 15.1141°
orbit number at epoch: 55493

The dashed part of the orbit path shows where the satellite is in the earth's shadow,  

DLR